Date,TemperatureHighF,TemperatureAvgF,TemperatureLowF,DewpointHighF,DewpointAvgF,DewpointLowF,HumidityHigh,HumidityAvg,HumidityLow,PressureMaxIn,PressureMinIn,WindSpeedMaxMPH,WindSpeedAvgMPH,GustSpeedMaxMPH,PrecipitationSumIn
2013-1-1,55.4,47.5,39.3,53.7,43.4,32.7,94,86,74,30.16,29.85,0,0,0,0.05
2013-1-2,43.2,37.8,33.5,32.7,28.5,26.6,81,69,55,30.26,30.16,0,0,0,0.00
2013-1-3,45.7,39.4,31.9,30.8,28.8,26.9,84,66,54,30.37,30.24,0,0,0,0.00
2013-1-4,43.6,39.8,36.2,38.9,35.9,28.5,92,86,55,30.44,30.30,0,0,0,0.25
2013-1-5,57.5,44.0,37.2,42.3,38.3,34.1,93,82,54,30.30,30.14,0,0,0,0.01
2013-1-6,61.3,44.9,35.3,36.2,33.0,28.9,92,67,31,30.31,30.18,0,0,0,0.01
2013-1-7,58.1,46.1,34.1,40.4,33.6,27.0,76,63,44,30.23,29.96,0,0,0,0.00
2013-1-8,52.9,49.7,46.4,51.2,47.1,40.4,94,91,70,29.96,29.77,0,0,0,0.50
2013-1-9,58.0,55.3,50.5,56.1,53.4,48.6,94,93,91,29.91,29.73,0,0,0,1.40
2013-1-10,68.6,53.7,46.5,49.0,44.8,41.7,94,74,42,29.95,29.86,0,0,0,0.01
2013-1-11,74.2,60.0,45.8,64.1,53.2,41.0,91,79,56,29.91,29.69,0,0,0,0.00
2013-1-12,73.9,66.2,47.0,67.4,60.5,34.5,93,82,55,29.78,29.53,0,0,0,0.03
2013-1-13,53.9,44.2,37.5,34.9,28.8,23.7,68,55,41,30.09,29.78,0,0,0,0.00
2013-1-14,54.1,41.0,34.3,30.7,26.6,21.8,66,57,39,30.17,30.00,0,0,0,0.00
2013-1-15,41.3,36.3,34.3,33.3,30.9,23.5,91,81,61,30.18,30.00,0,0,0,0.04
2013-1-16,53.3,39.3,29.4,23.5,19.6,12.9,66,47,23,30.27,30.10,0,0,0,0.00
2013-1-17,68.6,49.6,38.2,36.0,29.7,18.2,65,48,27,30.39,30.20,0,0,0,0.00
2013-1-18,69.1,50.8,37.2,36.9,32.2,30.0,75,52,26,30.43,30.22,0,0,0,0.00
2013-1-19,69.8,53.0,38.9,46.4,40.6,32.7,92,65,39,30.22,30.05,0,0,0,0.00
2013-1-20,76.1,57.4,41.2,52.0,44.6,37.7,92,66,31,30.14,29.98,0,0,0,0.00
2013-1-21,75.6,58.4,46.2,52.9,46.1,40.0,89,66,39,30.14,30.01,0,0,0,0.00
2013-1-22,74.6,57.0,43.3,50.2,44.0,35.9,78,63,40,30.21,30.09,0,0,0,0.00
2013-1-23,75.4,60.4,51.1,58.8,52.2,46.7,93,76,48,30.24,30.09,0,0,0,0.00
2013-1-24,79.0,67.2,59.0,61.6,58.2,55.5,90,74,51,30.14,29.98,0,0,0,0.00
2013-1-25,81.1,67.3,55.4,61.0,57.6,46.5,88,72,49,30.04,29.90,0,0,0,0.00
2013-1-26,68.3,56.8,51.9,56.8,51.4,46.2,91,83,65,30.09,29.95,0,0,0,0.00
2013-1-27,77.9,66.4,56.9,64.1,60.4,53.7,93,82,57,30.00,29.83,0,0,0,0.00
2013-1-28,76.3,71.0,67.9,65.2,63.9,62.9,89,79,64,29.91,29.75,0,0,0,0.00
2013-1-29,82.8,70.0,56.2,65.1,55.2,22.4,87,63,27,29.75,29.38,0,0,0,0.05
2013-1-30,59.8,50.6,39.9,28.8,19.9,13.8,50,31,19,30.13,29.70,0,0,0,0.00
2013-1-31,70.3,52.1,36.3,24.7,19.3,15.7,50,29,15,30.20,30.08,0,0,0,0.00
2013-2-1,73.9,57.3,43.2,41.3,35.1,24.6,70,46,25,30.26,30.08,0,0,0,0.00
2013-2-2,80.5,60.4,41.6,53.6,44.6,37.6,89,59,31,30.18,30.05,0,0,0,0.00
2013-2-3,77.4,60.3,45.2,47.3,37.7,27.9,68,46,18,30.24,29.91,0,0,0,0.00
2013-2-4,76.5,62.8,56.7,58.2,54.1,47.5,89,74,50,29.91,29.68,0,0,0,0.00
2013-2-5,81.8,64.5,52.9,54.9,46.5,37.3,89,57,21,29.88,29.74,0,0,0,0.00
2013-2-6,81.1,65.0,58.1,61.0,56.3,49.7,92,75,42,29.89,29.71,0,0,0,0.04
2013-2-7,84.9,67.3,58.7,59.8,53.9,37.7,87,65,30,29.97,29.72,0,0,0,0.00
2013-2-8,74.4,58.8,47.1,44.9,34.4,23.3,68,44,17,30.12,29.96,0,0,0,0.00
2013-2-9,67.8,58.3,53.1,64.8,53.8,36.5,93,85,50,29.99,29.67,0,0,0,0.04
2013-2-10,67.9,61.6,54.4,65.4,45.2,28.4,92,59,25,29.92,29.61,0,0,0,0.10
2013-2-11,58.7,53.4,50.5,49.5,46.0,41.0,90,76,57,29.99,29.87,0,0,0,0.20
2013-2-12,69.8,58.0,50.5,55.8,45.4,24.1,93,69,23,29.95,29.71,0,0,0,0.04
2013-2-13,66.4,49.7,39.2,38.5,32.8,25.9,77,55,26,30.06,29.93,0,0,0,0.00
2013-2-14,74.0,54.3,38.0,40.6,34.8,30.8,82,52,22,30.04,29.89,0,0,0,0.00
2013-2-15,66.0,51.3,40.6,40.4,34.8,22.6,79,55,35,30.29,29.96,0,0,0,0.00
2013-2-16,67.6,49.9,35.2,28.7,25.3,21.0,60,40,21,30.36,30.11,0,0,0,0.00
2013-2-17,72.7,57.0,39.9,50.0,35.8,27.4,69,47,24,30.10,29.85,0,0,0,0.00
2013-2-18,81.4,67.4,56.9,58.6,46.0,26.1,79,52,16,29.97,29.70,0,0,0,0.00
2013-2-19,74.0,58.0,43.5,33.9,30.1,22.3,61,37,16,30.17,29.97,0,0,0,0.00
2013-2-20,64.7,56.5,52.2,62.4,46.8,31.2,93,72,40,30.01,29.55,0,0,0,0.04
2013-2-21,78.3,66.8,53.8,64.9,41.5,18.4,93,49,12,29.75,29.45,0,0,0,0.01
2013-2-22,63.1,50.9,44.2,38.4,32.6,26.9,71,51,30,29.96,29.74,0,0,0,0.00
2013-2-23,73.7,53.5,39.6,38.3,31.8,26.9,64,46,24,29.97,29.76,0,0,0,0.00
2013-2-24,76.7,57.9,39.8,56.7,45.1,33.3,86,64,39,29.82,29.47,0,0,0,0.00
2013-2-25,63.9,55.8,46.2,57.8,35.3,17.9,92,51,17,29.72,29.42,0,0,0,0.02
2013-2-26,68.8,53.3,39.6,32.9,27.6,24.9,60,39,21,29.86,29.71,0,0,0,0.00
2013-2-27,64.5,53.2,45.1,33.0,26.5,18.2,52,36,20,30.13,29.76,0,0,0,0.00
2013-2-28,64.5,49.6,41.5,28.0,25.1,19.5,57,40,20,30.25,30.09,0,0,0,0.00
2013-3-1,72.8,53.2,36.6,30.2,24.5,15.9,59,36,15,30.21,30.02,0,0,0,0.00
2013-3-2,64.3,49.6,39.2,28.8,26.4,21.0,62,43,22,30.34,30.17,0,0,0,0.00
2013-3-3,75.6,57.5,39.5,42.2,30.8,22.4,57,38,20,30.18,29.80,0,0,0,0.00
2013-3-4,88.0,69.2,53.3,54.8,46.6,41.1,80,49,22,29.80,29.57,0,0,0,0.00
2013-3-5,68.8,57.0,43.1,55.1,26.2,8.2,79,36,12,30.27,29.63,0,0,0,0.00
2013-3-6,67.8,50.7,37.6,25.9,19.6,13.7,45,30,16,30.36,30.12,0,0,0,0.00
2013-3-7,75.8,57.8,40.5,51.9,40.6,20.0,74,54,34,30.15,29.98,0,0,0,0.00
2013-3-8,66.0,60.7,57.0,62.4,55.6,50.0,93,83,70,30.04,29.89,0,0,0,0.21
2013-3-9,70.9,65.7,61.2,65.1,61.0,56.7,92,85,74,29.91,29.55,0,0,0,0.03
2013-3-10,67.1,59.1,46.7,62.2,42.0,31.5,92,57,30,30.03,29.60,0,0,0,0.72
2013-3-11,67.8,51.3,38.0,32.2,26.5,18.5,68,42,17,30.09,29.91,0,0,0,0.00
2013-3-12,80.9,59.9,43.6,41.7,31.3,24.9,50,36,16,30.16,29.96,0,0,0,0.00
2013-3-13,80.1,60.9,44.8,40.7,36.5,32.4,71,44,20,30.33,30.14,0,0,0,0.00
2013-3-14,79.8,63.5,49.9,53.1,46.0,40.3,82,56,27,30.28,30.10,0,0,0,0.00
2013-3-15,82.6,68.0,52.5,54.2,46.7,37.7,90,52,22,30.14,29.88,0,0,0,0.00
2013-3-16,85.7,69.3,57.6,59.7,54.9,48.0,88,64,29,29.88,29.61,0,0,0,0.00
2013-3-17,85.1,71.7,64.3,62.8,59.4,56.0,85,67,40,29.69,29.52,0,0,0,0.00
2013-3-18,92.1,74.5,63.9,63.8,53.6,41.5,87,56,19,29.82,29.58,0,0,0,0.00
2013-3-19,85.9,67.5,51.1,62.7,52.1,43.3,77,59,41,29.89,29.73,0,0,0,0.05
2013-3-20,76.5,62.1,52.3,56.5,48.3,34.9,92,66,27,30.13,29.87,0,0,0,0.12
2013-3-23,83.2,67.9,52.2,60.0,54.9,46.9,82,65,42,29.69,29.46,0,0,0,0.00
2013-3-24,61.5,52.7,43.1,56.0,31.8,20.9,88,48,23,30.08,29.58,0,0,0,0.01
2013-3-25,63.1,48.8,36.5,27.4,22.2,17.3,57,38,18,30.30,30.08,0,0,0,0.00
2013-3-26,69.4,51.3,34.6,30.0,22.6,18.2,61,35,17,30.40,30.20,0,0,0,0.00
2013-3-27,70.1,54.9,36.5,46.8,36.2,22.5,72,50,32,30.23,30.05,0,0,0,0.00
2013-3-28,73.9,62.3,52.3,57.7,53.1,46.6,86,72,55,30.10,30.00,0,0,0,0.00
2013-3-29,79.0,65.7,58.0,59.1,56.0,54.4,91,73,46,30.06,29.94,0,0,0,0.00
2013-3-30,84.3,71.6,63.5,62.7,59.5,56.7,88,68,40,29.99,29.75,0,0,0,0.00
2013-3-31,81.4,70.2,62.7,65.5,61.7,55.1,86,75,54,29.84,29.71,0,0,0,0.03
2013-4-1,89.3,72.1,59.5,65.5,60.1,55.7,90,69,36,29.93,29.76,0,0,0,0.00
2013-4-2,78.1,67.0,57.6,66.9,62.0,53.7,93,85,65,29.88,29.67,0,0,0,2.06
2013-4-3,56.2,53.1,48.5,53.9,51.3,46.6,94,94,91,30.04,29.70,0,0,0,0.61
2013-4-4,62.7,51.2,46.0,46.6,42.6,38.4,93,74,49,30.14,30.00,0,0,0,0.00
2013-4-5,75.4,56.1,38.9,49.0,43.1,36.2,91,65,34,30.18,29.96,0,0,0,0.00
2013-4-6,81.4,65.5,50.7,57.4,53.1,46.0,89,67,41,29.96,29.73,0,0,0,0.00
2013-4-7,83.8,68.7,61.3,63.6,59.7,56.7,90,75,48,29.81,29.63,0,0,0,0.00
2013-4-8,74.7,69.4,66.0,64.9,62.8,59.5,87,80,68,29.71,29.55,0,0,0,0.00
2013-4-9,86.5,74.2,69.3,68.9,65.6,63.6,86,75,53,29.59,29.46,0,0,0,0.00
2013-4-10,73.5,56.9,44.3,67.4,51.3,40.0,92,82,66,29.86,29.50,0,0,0,0.28
2013-4-11,64.3,48.2,41.5,45.1,39.5,36.8,88,73,42,29.89,29.76,0,0,0,0.06
2013-4-12,85.7,71.1,45.7,50.8,44.7,39.5,80,41,23,29.90,29.73,0,0,0,0.00
2013-4-13,78.8,65.3,51.6,59.6,51.9,46.3,88,64,36,29.84,29.66,0,0,0,0.00
2013-4-14,87.0,72.9,57.5,67.0,61.1,53.3,91,69,47,29.69,29.48,0,0,0,0.00
2013-4-15,90.3,76.2,68.8,68.6,65.3,62.7,89,71,44,29.68,29.55,0,0,0,0.00
2013-4-16,86.3,75.6,67.8,69.2,65.6,61.8,87,72,54,29.76,29.67,0,0,0,0.00
2013-4-17,82.2,75.1,71.8,70.4,68.5,66.4,91,80,60,29.74,29.54,0,0,0,0.00
2013-4-18,73.9,59.4,49.1,69.8,50.1,36.9,92,73,46,30.01,29.52,0,0,0,0.38
2013-4-19,71.8,55.6,42.6,37.3,31.6,24.9,71,44,19,30.20,29.99,0,0,0,0.00
2013-4-20,76.0,58.5,42.3,45.7,34.5,29.8,67,44,21,30.14,29.89,0,0,0,0.00
2013-4-21,80.7,63.4,47.6,56.9,50.7,43.4,87,66,40,30.04,29.89,0,0,0,0.00
2013-4-22,82.8,63.5,56.0,59.7,56.1,53.1,92,78,43,29.99,29.74,0,0,0,0.00
2013-4-23,80.9,65.8,52.8,65.7,59.6,42.2,85,81,57,29.97,29.71,0,0,0,0.00
2013-4-24,64.2,53.6,45.2,40.9,38.3,34.5,77,58,39,30.16,30.00,0,0,0,0.00
2013-4-25,69.8,65.1,54.7,47.2,44.1,40.2,61,47,41,30.23,30.07,0,0,0,0.00
2013-4-26,63.5,61.1,59.2,61.4,55.4,42.9,93,83,48,30.07,29.97,0,0,0,0.03
2013-4-27,84.0,75.9,66.6,68.7,66.2,63.9,91,73,57,29.96,29.79,0,0,0,0.09
2013-4-28,86.5,72.8,60.9,65.6,61.5,56.9,93,71,38,29.91,29.72,0,0,0,0.00
2013-4-29,88.0,71.6,64.8,68.2,63.4,60.1,91,77,43,29.81,29.65,0,0,0,0.01
2013-4-30,86.1,72.2,62.4,66.2,62.8,59.4,92,74,46,29.72,29.59,0,0,0,0.00
2013-5-1,89.9,77.1,66.0,67.8,65.0,61.7,89,68,44,29.80,29.65,0,0,0,0.00
2013-5-2,75.3,56.0,47.4,64.4,47.5,34.2,91,73,56,30.24,29.79,0,0,0,0.12
2013-5-3,71.1,55.5,43.1,35.2,31.2,26.1,63,43,20,30.24,29.97,0,0,0,0.00
2013-5-4,84.3,67.5,49.1,40.4,34.1,29.1,56,32,15,29.98,29.75,0,0,0,0.00
2013-5-5,79.2,64.0,49.9,48.0,41.5,34.1,63,45,27,30.04,29.86,0,0,0,0.00
2013-5-6,74.6,62.7,50.4,50.1,46.6,43.3,79,58,38,30.05,29.89,0,0,0,0.00
2013-5-7,87.8,70.3,53.8,56.2,50.2,46.2,78,53,25,29.97,29.81,0,0,0,0.00
2013-5-8,83.8,72.5,63.5,63.6,60.4,54.5,88,68,48,29.89,29.75,0,0,0,0.00
2013-5-9,76.8,70.5,66.3,68.9,64.8,61.3,90,83,71,29.84,29.73,0,0,0,0.03
2013-5-10,90.1,71.5,62.1,66.9,62.3,58.3,92,75,39,29.93,29.67,0,0,0,1.21
2013-5-11,83.0,70.0,61.0,62.4,57.0,48.0,93,67,37,30.02,29.87,0,0,0,0.00
2013-5-12,84.7,69.4,58.1,59.8,51.1,44.7,72,54,30,30.14,30.00,0,0,0,0.00
2013-5-13,88.4,70.3,53.9,57.6,50.0,43.4,78,52,26,30.15,30.03,0,0,0,0.00
2013-5-14,86.7,73.2,59.9,65.6,60.1,55.5,86,66,41,30.10,29.88,0,0,0,0.00
2013-5-15,85.3,73.8,66.0,70.9,66.7,62.3,93,80,56,29.96,29.70,0,0,0,0.13
2013-5-16,93.4,78.6,69.8,71.3,67.8,65.6,90,72,43,29.74,29.57,0,0,0,0.01
2013-5-17,94.3,81.2,73.7,73.8,69.9,66.6,85,70,46,29.75,29.64,0,0,0,0.00
2013-5-18,94.7,80.7,71.3,70.6,67.0,62.0,89,66,41,29.78,29.67,0,0,0,0.00
2013-5-19,92.5,81.8,72.1,71.2,68.0,65.1,85,64,45,29.71,29.59,0,0,0,0.00
2013-5-20,93.2,80.5,70.9,71.7,68.3,63.9,89,69,45,29.71,29.55,0,0,0,0.00
2013-5-21,88.2,80.9,70.3,74.3,67.9,59.8,88,65,54,29.76,29.56,0,0,0,0.05
2013-5-22,95.6,77.2,60.1,70.8,62.5,56.5,90,64,33,29.81,29.68,0,0,0,0.00
2013-5-23,90.5,80.0,74.0,71.8,69.6,68.4,86,72,51,29.91,29.73,0,0,0,0.00
2013-5-24,81.8,73.0,67.9,72.1,68.7,64.9,93,87,69,30.00,29.87,0,0,0,1.75
2013-5-25,79.9,73.0,68.6,73.1,69.1,65.1,94,88,64,30.03,29.91,0,0,0,0.58
2013-5-26,85.3,76.9,71.5,72.5,69.5,65.2,93,79,59,29.97,29.84,0,0,0,0.64
2013-5-27,89.0,77.9,69.8,70.7,68.3,65.5,91,74,52,29.90,29.71,0,0,0,0.00
2013-5-28,89.7,81.2,72.8,71.2,68.7,66.8,85,67,48,29.78,29.63,0,0,0,0.00
2013-5-29,87.0,78.0,72.8,71.7,69.5,68.1,87,76,57,29.74,29.58,0,0,0,0.00
2013-5-30,90.7,81.3,74.4,72.3,70.5,69.2,86,71,53,29.71,29.61,0,0,0,0.00
2013-5-31,91.2,81.6,75.8,73.8,71.3,70.1,86,72,53,29.74,29.61,0,0,0,0.00
2013-6-1,95.6,83.5,75.3,74.3,71.2,69.5,86,68,46,29.76,29.65,0,0,0,0.00
2013-6-2,89.9,77.8,66.4,71.3,65.4,57.3,92,69,34,29.94,29.76,0,0,0,0.15
2013-6-3,93.6,78.7,64.7,68.3,62.4,54.3,85,61,28,29.86,29.70,0,0,0,0.00
2013-6-4,94.3,80.7,69.3,71.4,66.2,61.1,91,64,36,29.78,29.66,0,0,0,0.00
2013-6-5,96.3,79.5,68.6,69.9,66.0,61.8,90,66,35,29.76,29.60,0,0,0,0.00
2013-6-6,95.1,81.2,70.3,71.4,66.8,62.2,89,65,35,29.80,29.62,0,0,0,0.00
2013-6-7,86.5,76.8,69.6,64.6,59.9,53.3,79,58,33,29.88,29.74,0,0,0,0.00
2013-6-8,91.0,77.2,63.1,69.8,61.9,55.2,79,61,45,29.81,29.65,0,0,0,0.00
2013-6-9,90.7,81.0,71.1,71.6,69.5,64.4,86,69,47,29.85,29.70,0,0,0,0.00
2013-6-10,97.5,82.5,70.3,72.5,68.5,64.2,91,66,37,29.86,29.76,0,0,0,0.00
2013-6-11,94.3,81.6,74.2,71.9,69.3,64.6,90,69,41,29.91,29.83,0,0,0,0.00
2013-6-12,96.6,82.7,73.9,73.6,70.3,66.6,89,68,41,29.93,29.81,0,0,0,0.00
2013-6-13,98.2,81.5,75.6,73.8,70.3,64.2,88,71,37,29.93,29.80,0,0,0,0.00
2013-6-14,89.9,81.2,73.5,73.7,71.1,68.6,87,72,55,29.87,29.76,0,0,0,0.00
2013-6-15,88.6,81.9,76.7,74.2,71.8,69.6,88,72,56,29.87,29.75,0,0,0,0.00
2013-6-16,96.3,84.9,74.9,71.8,69.3,64.4,87,63,36,29.89,29.75,0,0,0,0.00
2013-6-17,97.8,88.7,76.3,71.8,68.3,61.8,83,53,33,29.87,29.70,0,0,0,0.00
2013-6-18,97.3,83.4,72.3,71.6,67.5,61.5,84,61,36,29.89,29.73,0,0,0,0.00
2013-6-19,98.7,85.1,74.9,71.7,68.7,63.1,88,61,34,29.84,29.75,0,0,0,0.00
2013-6-20,97.1,84.5,73.7,71.5,67.6,60.4,89,61,31,29.92,29.81,0,0,0,0.00
2013-6-21,98.0,85.1,75.6,72.2,66.7,57.7,88,58,29,29.94,29.82,0,0,0,0.00
2013-6-22,98.2,85.2,76.0,71.5,67.1,60.9,84,58,30,29.92,29.75,0,0,0,0.00
2013-6-23,97.5,85.0,75.8,71.2,65.5,54.9,84,56,29,29.85,29.75,0,0,0,0.00
2013-6-24,99.0,84.9,74.7,71.9,68.2,61.8,88,61,31,29.91,29.75,0,0,0,0.00
2013-6-25,99.7,86.0,75.8,72.3,67.0,58.8,87,58,27,29.86,29.72,0,0,0,0.00
2013-6-26,100.4,87.9,76.1,71.7,68.0,62.0,82,55,29,29.84,29.73,0,0,0,0.00
2013-6-27,103.6,84.8,75.4,71.9,67.5,56.3,82,62,22,29.90,29.78,0,0,0,0.00
2013-6-28,107.7,96.8,75.6,69.7,62.3,58.7,82,34,21,29.86,29.66,0,0,0,0.00
2013-6-29,108.8,92.8,72.0,71.2,61.9,54.2,85,40,17,29.73,29.59,0,0,0,0.00
2013-6-30,95.9,82.1,69.4,68.4,64.3,56.5,91,59,28,29.82,29.66,0,0,0,0.23
2013-7-1,93.2,80.7,70.1,64.9,54.9,49.9,61,43,25,29.87,29.76,0,0,0,0.00
2013-7-2,94.5,79.3,68.1,60.0,53.3,47.1,62,43,22,29.95,29.83,0,0,0,0.00
2013-7-3,98.7,81.6,66.6,60.7,51.3,45.6,64,38,19,29.91,29.77,0,0,0,0.00
2013-7-4,95.4,81.4,67.1,67.7,58.7,49.8,84,51,22,29.87,29.74,0,0,0,0.00
2013-7-5,101.5,85.4,70.6,68.8,61.3,54.6,83,49,23,29.86,29.69,0,0,0,0.00
2013-7-6,100.4,82.2,70.1,70.8,65.7,57.3,89,61,27,29.81,29.67,0,0,0,0.00
2013-7-7,101.2,84.2,74.0,72.3,69.3,63.6,86,64,30,29.84,29.73,0,0,0,0.03
2013-7-8,88.4,80.3,75.6,73.1,70.5,63.5,86,73,45,29.98,29.83,0,0,0,0.01
2013-7-9,100.4,86.4,75.4,72.7,69.0,63.3,86,60,31,30.02,29.85,0,0,0,0.00
2013-7-10,101.0,86.6,74.0,72.0,68.3,60.6,88,59,30,29.96,29.77,0,0,0,0.00
2013-7-11,85.1,78.2,74.9,71.7,69.6,68.4,84,75,63,29.87,29.85,0,0,0,0.00
2013-7-12,103.6,93.2,74.4,70.5,63.4,58.5,83,40,25,29.84,29.72,0,0,0,0.00
2013-7-13,105.4,88.7,70.4,68.4,63.0,55.3,90,47,23,29.84,29.68,0,0,0,0.00
2013-7-14,97.5,82.3,74.6,74.2,65.6,59.6,91,60,31,29.78,29.72,0,0,0,0.41
2013-7-15,76.7,73.1,70.8,74.3,69.6,66.8,93,89,75,29.91,29.76,0,0,0,0.21
2013-7-16,93.8,78.5,70.6,75.2,69.0,63.5,93,75,38,30.00,29.89,0,0,0,0.01
2013-7-17,88.8,76.1,71.8,75.6,70.4,68.5,93,83,54,30.05,29.96,0,0,0,1.23
2013-7-18,94.5,78.3,71.8,76.1,70.0,65.8,94,78,40,30.04,29.87,0,0,0,0.13
2013-7-19,96.3,84.9,71.3,71.5,67.7,60.8,92,60,33,29.95,29.76,0,0,0,0.00
2013-7-20,95.4,81.8,72.1,72.7,68.9,63.6,91,68,37,29.86,29.72,0,0,0,0.00
2013-7-21,95.1,83.6,73.2,74.6,72.1,69.6,91,70,44,29.83,29.75,0,0,0,0.00
2013-7-22,97.1,84.7,76.7,74.1,71.4,65.6,89,67,37,29.86,29.74,0,0,0,0.00
2013-7-23,97.3,84.9,76.5,73.0,69.6,63.4,84,63,34,29.88,29.72,0,0,0,0.00
2013-7-24,94.7,84.7,75.3,73.5,70.3,65.6,86,64,39,29.87,29.73,0,0,0,0.00
2013-7-25,99.0,86.4,74.9,72.7,68.0,59.9,88,58,29,29.89,29.81,0,0,0,0.00
2013-7-26,98.7,85.9,75.1,74.0,70.0,63.6,89,62,34,29.89,29.73,0,0,0,0.00
2013-7-27,88.8,79.0,73.3,75.4,71.3,66.8,93,79,50,29.86,29.75,0,0,0,0.46
2013-7-28,98.0,84.2,73.7,74.2,69.4,66.6,84,64,38,29.82,29.69,0,0,0,0.00
2013-7-29,99.9,85.9,76.7,72.7,68.1,58.3,84,60,26,29.90,29.79,0,0,0,0.00
2013-7-30,100.2,86.1,75.8,72.4,68.4,57.6,86,60,27,29.97,29.82,0,0,0,0.00
2013-7-31,102.8,86.6,74.0,71.3,65.5,56.6,88,55,23,29.97,29.78,0,0,0,0.00
2013-8-1,105.1,88.9,75.4,70.1,66.4,61.7,80,51,27,29.89,29.74,0,0,0,0.00
2013-8-2,103.3,88.3,75.4,70.7,65.3,59.7,73,49,26,29.85,29.73,0,0,0,0.00
2013-8-3,101.2,87.2,75.1,72.3,67.8,60.6,89,57,27,29.89,29.78,0,0,0,0.00
2013-8-4,101.0,89.3,77.7,74.0,69.5,65.0,85,55,32,29.94,29.78,0,0,0,0.00
2013-8-5,103.6,87.7,74.0,71.6,66.7,57.6,87,54,26,29.90,29.73,0,0,0,0.00
2013-8-6,103.3,87.8,74.9,72.1,67.9,58.2,85,56,27,29.82,29.66,0,0,0,0.00
2013-8-7,104.6,87.4,77.0,72.6,68.5,54.8,82,58,23,29.79,29.64,0,0,0,0.00
2013-8-8,104.4,87.9,76.1,71.3,66.6,53.7,81,54,20,29.76,29.63,0,0,0,0.00
2013-8-9,104.4,86.2,73.7,71.8,65.0,53.0,88,56,19,29.83,29.72,0,0,0,0.00
2013-8-10,104.1,86.6,73.0,72.5,68.4,62.4,92,58,27,29.91,29.77,0,0,0,0.00
2013-8-11,101.0,84.4,75.6,73.2,69.5,63.9,84,64,31,29.95,29.81,0,0,0,0.01
2013-8-12,100.4,85.3,73.0,71.0,67.6,61.4,89,59,28,29.94,29.80,0,0,0,0.00
2013-8-13,102.8,88.0,76.1,71.8,66.5,57.2,86,54,25,29.91,29.74,0,0,0,0.00
2013-8-14,102.8,86.2,76.5,70.7,67.8,61.3,80,57,27,29.86,29.73,0,0,0,0.00
2013-8-15,97.1,82.7,72.3,73.8,70.0,67.4,91,68,39,29.88,29.76,0,0,0,0.30
2013-8-16,95.6,80.4,70.9,76.1,67.8,58.3,93,70,34,29.92,29.77,0,0,0,0.00
2013-8-17,97.3,81.8,71.3,67.9,62.9,54.8,85,57,28,29.92,29.79,0,0,0,0.00
2013-8-18,98.7,82.3,67.4,68.6,58.8,53.5,75,48,25,29.92,29.83,0,0,0,0.00
2013-8-19,97.3,83.1,69.4,66.0,61.0,56.6,77,50,28,29.92,29.78,0,0,0,0.00
2013-8-20,99.9,82.8,70.4,69.6,65.0,57.3,85,58,26,29.90,29.80,0,0,0,0.00
2013-8-21,100.4,83.2,72.5,71.8,67.9,62.5,86,63,32,29.96,29.82,0,0,0,0.00
2013-8-22,99.2,85.3,72.5,72.2,68.3,64.2,87,60,34,29.96,29.78,0,0,0,0.00
2013-8-23,99.7,86.2,73.3,72.2,67.7,61.3,88,58,30,29.89,29.74,0,0,0,0.00
2013-8-24,101.7,86.6,74.2,71.2,67.8,63.6,88,56,30,29.91,29.78,0,0,0,0.00
2013-8-25,96.8,84.7,74.6,71.0,68.2,65.1,80,60,37,29.94,29.86,0,0,0,0.00
2013-8-26,92.5,80.0,72.7,71.6,69.6,67.1,91,72,45,30.00,29.89,0,0,0,0.07
2013-8-27,87.2,77.3,72.3,74.0,68.7,60.4,93,77,44,30.00,29.90,0,0,0,0.01
2013-8-28,97.3,83.2,72.0,73.4,68.2,63.4,92,65,35,29.99,29.86,0,0,0,0.00
2013-8-29,105.4,87.3,74.7,69.6,65.0,59.4,82,52,25,29.95,29.80,0,0,0,0.00
2013-8-30,105.1,88.8,74.0,66.9,62.9,56.2,73,46,23,29.89,29.72,0,0,0,0.00
2013-8-31,103.6,87.2,72.7,70.3,66.5,60.0,88,54,27,29.81,29.66,0,0,0,0.00
2013-9-1,103.3,87.1,74.4,71.0,66.7,62.0,83,54,29,29.78,29.66,0,0,0,0.00
2013-9-2,104.1,87.3,75.3,72.6,67.0,59.8,85,55,25,29.84,29.68,0,0,0,0.00
2013-9-3,104.1,87.7,72.8,67.4,64.2,59.3,78,49,24,29.86,29.72,0,0,0,0.00
2013-9-4,102.8,86.6,69.1,73.2,67.4,61.8,91,56,29,29.92,29.77,0,0,0,0.92
2013-9-5,97.5,81.5,70.8,75.1,69.4,64.8,93,71,37,29.98,29.84,0,0,0,0.00
2013-9-6,97.8,84.2,72.8,72.4,69.2,63.6,88,64,35,29.96,29.80,0,0,0,0.00
2013-9-7,99.4,81.7,73.5,74.0,69.9,64.2,88,71,32,29.90,29.75,0,0,0,0.00
2013-9-8,95.1,79.6,72.3,73.5,70.0,67.6,91,74,42,29.87,29.74,0,0,0,0.00
2013-9-9,97.1,77.5,70.3,72.6,69.2,66.6,92,78,38,29.86,29.77,0,0,0,0.07
2013-9-10,94.5,78.7,71.1,75.3,70.1,66.2,93,77,43,29.93,29.84,0,0,0,0.00
2013-9-11,97.8,82.8,74.6,73.2,68.6,61.7,87,66,32,29.97,29.84,0,0,0,0.00
2013-9-12,98.7,83.1,70.8,71.8,67.0,61.5,91,62,32,29.94,29.77,0,0,0,0.00
2013-9-13,101.0,85.0,72.8,68.9,64.1,58.8,83,53,27,29.83,29.67,0,0,0,0.00
2013-9-14,98.7,83.4,69.1,69.2,65.5,62.8,86,57,33,29.81,29.69,0,0,0,0.00
2013-9-15,95.9,83.0,73.0,73.2,69.0,64.1,88,65,37,29.89,29.77,0,0,0,0.00
2013-9-16,92.1,80.9,75.1,73.9,70.8,68.2,86,72,47,29.92,29.82,0,0,0,0.02
2013-9-17,92.1,80.1,73.0,76.2,71.0,68.1,91,75,49,29.93,29.80,0,0,0,0.03
2013-9-18,98.5,82.4,72.8,73.9,68.8,63.3,91,67,32,29.89,29.73,0,0,0,0.00
2013-9-19,92.5,80.9,75.6,78.2,71.8,69.3,89,75,51,29.82,29.67,0,0,0,0.39
2013-9-20,78.3,74.8,70.3,76.1,72.1,68.3,94,91,82,29.73,29.65,0,0,0,2.54
2013-9-21,85.9,74.2,65.2,67.1,57.8,48.3,94,60,32,29.81,29.70,0,0,0,0.01
2013-9-22,87.8,71.6,59.6,57.5,51.0,45.4,73,51,26,29.79,29.65,0,0,0,0.00
2013-9-23,92.9,73.6,58.7,60.2,53.1,48.0,78,53,22,29.73,29.62,0,0,0,0.00
2013-9-24,97.1,79.5,66.3,64.4,57.8,54.3,73,51,26,29.79,29.69,0,0,0,0.00
2013-9-25,99.0,81.6,68.4,65.0,59.2,55.6,74,49,27,29.76,29.64,0,0,0,0.00
2013-9-26,94.5,80.0,67.3,71.1,62.8,55.3,82,58,30,29.77,29.67,0,0,0,0.00
2013-9-27,92.3,79.7,75.4,78.5,73.0,70.9,92,81,53,29.78,29.68,0,0,0,0.30
2013-9-28,93.8,80.1,75.3,75.3,73.3,70.1,91,82,48,29.84,29.73,0,0,0,0.08
2013-9-29,75.3,69.3,65.0,71.8,65.7,63.1,94,89,75,29.94,29.81,0,0,0,1.57
2013-9-30,91.8,74.1,61.5,63.7,59.5,51.8,91,65,27,29.84,29.68,0,0,0,0.00
2013-10-1,93.2,77.7,66.4,71.7,67.1,55.9,93,72,42,29.81,29.69,0,0,0,0.00
2013-10-2,93.4,80.5,73.2,74.1,70.9,68.0,91,74,48,29.83,29.71,0,0,0,0.00
2013-10-3,92.9,81.5,74.9,72.5,70.1,65.7,89,70,45,29.80,29.69,0,0,0,0.00
2013-10-4,91.2,79.3,71.8,71.6,69.2,66.5,91,73,45,29.79,29.69,0,0,0,0.00
2013-10-5,90.7,75.7,62.0,71.1,63.0,40.5,91,67,42,29.94,29.75,0,0,0,0.00
2013-10-6,82.6,64.8,53.5,55.8,46.5,36.4,93,58,21,30.03,29.92,0,0,0,0.41
2013-10-7,86.3,67.9,53.9,51.2,42.9,37.5,66,44,19,30.06,29.93,0,0,0,0.00
2013-10-8,88.2,69.4,53.5,52.3,47.5,43.7,77,49,24,29.99,29.86,0,0,0,0.00
2013-10-9,87.4,69.5,53.6,62.3,55.2,48.0,89,63,36,29.95,29.83,0,0,0,0.00
2013-10-10,87.0,72.7,60.9,66.8,61.7,57.6,91,71,46,29.93,29.75,0,0,0,0.00
2013-10-11,88.4,76.2,69.1,72.8,69.0,64.0,88,79,57,29.83,29.69,0,0,0,0.00
2013-10-12,92.9,80.4,74.4,74.8,71.4,68.6,92,76,48,29.89,29.76,0,0,0,2.99
2013-10-13,74.7,70.2,66.1,72.2,68.3,64.3,94,94,91,30.03,29.86,0,0,0,4.30
2013-10-14,76.5,73.0,70.9,74.4,70.6,69.1,94,92,84,29.97,29.80,0,0,0,0.29
2013-10-15,86.3,73.8,58.4,71.4,67.2,55.5,94,81,54,29.90,29.74,0,0,0,0.08
2013-10-16,59.5,57.0,54.1,57.3,54.9,52.1,94,93,90,29.97,29.85,0,0,0,1.05
2013-10-17,76.3,61.1,51.0,56.3,50.2,47.0,90,70,38,30.03,29.88,0,0,0,0.01
2013-10-18,72.8,63.7,55.0,62.4,56.9,50.6,88,79,64,29.90,29.76,0,0,0,0.00
2013-10-19,70.8,57.2,48.2,61.4,46.4,37.4,85,70,31,30.10,29.87,0,0,0,0.00
2013-10-20,67.1,60.0,58.7,48.8,48.1,47.2,69,65,49,29.84,29.81,0,0,0,0.00
2013-10-21,82.0,67.1,57.5,68.1,59.5,48.8,91,77,57,29.94,29.78,0,0,0,0.00
2013-10-22,78.8,63.2,52.3,54.3,46.1,38.5,81,58,25,30.05,29.94,0,0,0,0.00
2013-10-23,83.2,60.2,51.3,50.9,43.1,40.8,71,55,23,30.06,29.98,0,0,0,0.00
2013-10-24,86.3,69.2,58.9,53.1,46.7,42.5,71,47,24,30.11,29.99,0,0,0,0.00
2013-10-25,82.2,67.1,54.1,62.0,56.0,50.0,88,69,48,30.21,30.08,0,0,0,0.00
2013-10-26,82.0,69.1,61.3,64.6,60.5,57.1,88,75,51,30.11,29.94,0,0,0,0.00
2013-10-27,76.1,67.1,63.2,65.7,62.5,59.6,93,86,65,29.99,29.89,0,0,0,0.61
2013-10-28,82.2,71.4,65.2,68.2,64.9,61.7,93,81,59,29.97,29.84,0,0,0,0.01
2013-10-29,84.1,73.9,69.1,69.8,66.9,65.2,90,80,57,29.95,29.84,0,0,0,0.00
2013-10-30,81.2,76.0,72.3,76.0,71.2,67.2,93,85,71,29.91,29.66,0,0,0,0.41
2013-10-31,81.2,69.9,56.7,71.5,56.8,37.2,94,70,23,29.78,29.62,0,0,0,4.36
2013-11-1,84.7,67.1,54.2,60.5,45.2,35.9,72,49,20,29.96,29.70,0,0,0,0.00
2013-11-2,75.3,62.7,51.9,45.0,40.5,33.6,67,47,22,30.18,29.96,0,0,0,0.00
2013-11-3,73.3,57.7,44.9,51.8,42.2,35.3,82,59,30,30.12,29.90,0,0,0,0.00
2013-11-4,66.3,62.1,58.4,62.0,57.8,51.0,92,86,77,29.96,29.85,0,0,0,0.04
2013-11-5,79.9,70.1,64.8,68.2,65.7,62.1,93,87,62,29.90,29.77,0,0,0,0.04
2013-11-6,70.6,60.6,50.4,68.2,54.8,41.4,93,81,62,30.23,29.85,0,0,0,0.26
2013-11-7,64.5,52.8,42.5,42.3,38.8,34.1,80,61,34,30.37,30.23,0,0,0,0.00
2013-11-8,68.8,56.7,49.4,44.8,41.7,36.1,77,59,30,30.28,30.06,0,0,0,0.00
2013-11-9,72.1,60.7,53.3,57.2,51.9,44.2,86,73,57,30.09,30.00,0,0,0,0.00
2013-11-10,69.4,62.9,59.8,56.3,55.4,53.4,86,77,61,30.20,30.06,0,0,0,0.00
2013-11-12,59.0,52.6,42.3,53.2,40.1,23.4,88,64,43,30.54,30.19,0,0,0,0.00
2013-11-13,58.7,43.1,33.1,29.1,25.8,21.1,75,52,26,30.57,30.31,0,0,0,0.00
2013-11-14,63.7,48.2,32.9,49.2,35.0,26.3,79,62,31,30.31,29.93,0,0,0,0.00
2013-11-15,79.8,62.8,48.6,58.2,53.4,45.8,92,74,45,29.94,29.75,0,0,0,0.00
2013-11-16,81.6,71.1,61.0,69.0,64.3,57.3,92,80,59,29.79,29.61,0,0,0,0.00
2013-11-17,89.7,76.4,67.3,69.8,65.8,55.3,90,73,34,29.82,29.63,0,0,0,0.00
2013-11-18,77.2,67.3,59.2,64.7,58.3,50.1,91,74,55,29.99,29.81,0,0,0,0.00
2013-11-19,77.4,62.7,53.3,52.4,47.0,42.7,79,59,30,30.04,29.88,0,0,0,0.00
2013-11-20,71.8,63.0,56.9,63.7,55.1,48.0,92,76,63,29.91,29.77,0,0,0,0.03
2013-11-21,78.8,72.7,66.1,71.8,68.8,63.7,93,88,71,29.92,29.80,0,0,0,0.08
2013-11-22,72.1,42.6,35.0,69.9,40.3,32.6,93,91,87,30.31,29.90,0,0,0,0.72
2013-11-23,41.8,38.3,35.6,38.8,35.5,33.0,92,90,85,30.39,30.28,0,0,0,0.01
2013-11-24,41.9,38.1,34.4,37.3,32.7,28.1,90,81,64,30.41,30.23,0,0,0,0.21
2013-11-25,38.8,36.7,33.8,37.2,34.6,31.4,94,92,86,30.25,30.00,0,0,0,0.77
2013-11-26,50.7,42.4,37.6,35.5,32.4,27.0,86,69,47,30.26,30.03,0,0,0,0.00
2013-11-27,45.2,37.9,33.1,27.7,25.3,18.9,73,61,38,30.40,30.26,0,0,0,0.00
2013-11-28,61.0,42.3,31.0,29.3,26.1,21.9,77,56,24,30.37,30.25,0,0,0,0.00
2013-11-29,65.6,48.7,34.4,47.9,39.9,27.9,91,73,50,30.41,30.26,0,0,0,0.00
2013-11-30,66.0,57.0,48.9,55.2,49.8,42.6,84,77,65,30.26,30.08,0,0,0,0.00
2013-12-1,72.1,62.6,52.5,58.5,55.2,49.7,92,78,60,30.09,29.80,0,0,0,0.00
2013-12-2,84.3,66.8,54.1,56.9,51.3,38.7,91,63,20,29.81,29.54,0,0,0,0.00
2013-12-3,87.8,67.5,51.0,54.2,47.1,38.1,91,55,20,29.59,29.46,0,0,0,0.00
2013-12-4,74.2,64.6,56.5,64.6,58.3,46.7,93,81,56,29.67,29.53,0,0,0,0.00
2013-12-5,66.9,44.9,32.4,64.8,37.8,23.7,93,76,60,30.01,29.64,0,0,0,0.01
2013-12-6,35.5,31.9,28.2,30.7,26.6,20.7,90,81,71,30.36,29.97,0,0,0,0.05
2013-12-7,30.0,27.1,25.1,23.4,19.9,17.7,86,74,68,30.40,30.22,0,0,0,0.00
2013-12-8,49.1,35.4,26.9,37.1,29.6,23.4,90,80,62,30.22,29.93,0,0,0,0.00
2013-12-9,38.9,36.7,33.2,37.0,34.5,29.8,93,92,86,30.30,29.96,0,0,0,0.04
2013-12-10,47.7,35.0,27.3,29.5,22.9,18.3,86,64,35,30.44,30.26,0,0,0,0.00
2013-12-11,60.7,42.3,28.5,32.2,28.0,22.8,80,59,31,30.46,30.25,0,0,0,0.00
2013-12-12,55.0,42.0,32.7,33.8,30.2,26.3,77,64,40,30.51,30.23,0,0,0,0.00
2013-12-13,51.1,45.6,42.1,49.2,39.9,32.5,93,81,67,30.21,29.80,0,0,0,0.14
2013-12-14,50.5,46.0,39.5,48.6,39.4,29.9,93,78,63,30.25,29.77,0,0,0,0.00
2013-12-15,63.9,45.6,32.8,33.8,29.4,26.4,79,56,27,30.32,30.18,0,0,0,0.00
2013-12-16,70.8,51.0,36.6,33.8,30.6,27.3,70,48,24,30.21,30.08,0,0,0,0.00
2013-12-17,76.3,54.0,37.8,41.1,36.0,29.5,85,54,22,30.23,30.11,0,0,0,0.00
2013-12-18,72.7,56.9,44.1,53.9,46.1,36.5,90,69,45,30.18,29.94,0,0,0,0.00
2013-12-19,75.8,63.8,52.6,61.0,56.2,47.9,89,77,55,29.94,29.67,0,0,0,0.00
2013-12-20,72.8,68.0,63.7,65.7,62.9,60.7,90,84,73,29.72,29.49,0,0,0,0.00
2013-12-21,71.3,53.9,45.1,65.9,48.3,38.2,94,82,49,29.74,29.46,0,0,0,0.41
2013-12-22,54.2,46.7,36.8,40.3,36.3,28.0,87,68,47,30.29,29.74,0,0,0,0.00
2013-12-23,60.9,41.2,30.7,31.1,27.5,25.0,80,62,27,30.44,30.29,0,0,0,0.00
2013-12-24,62.4,43.4,29.5,37.0,28.4,22.1,89,61,22,30.44,30.17,0,0,0,0.00
2013-12-25,55.4,46.4,37.5,44.6,40.4,34.4,92,80,64,30.28,30.15,0,0,0,0.00
2013-12-26,56.7,50.4,41.5,39.7,37.8,33.9,77,62,48,30.35,30.23,0,0,0,0.00
2013-12-27,57.6,49.3,44.3,42.5,39.5,37.6,86,70,48,30.34,30.22,0,0,0,0.00
2013-12-28,64.7,49.7,39.2,43.1,38.8,32.9,90,69,36,30.22,29.91,0,0,0,0.00
2013-12-29,67.4,47.7,34.3,51.4,40.9,28.5,92,78,55,30.18,29.87,0,0,0,0.00
2013-12-30,41.6,36.8,33.4,29.6,26.1,21.7,80,66,50,30.32,30.14,0,0,0,0.00
2013-12-31,56.9,41.5,34.6,29.7,28.0,24.5,77,61,29,30.38,30.16,0,0,0,0.00
2014-1-1,60.9,46.2,36.5,51.7,38.6,28.7,88,75,66,30.15,29.91,0,0,0,0.00
2014-1-2,52.2,41.9,31.3,47.9,26.1,19.5,89,55,30,30.38,29.99,0,0,0,0.00